Year,Month,Day,Hour,Minute,Value (Times are PST for windgust in km/hr)
2019,04,05,00,22,1.60
2019,04,05,00,25,1.60
2019,04,05,00,42,3.20
2019,04,05,00,45,3.20
2019,04,05,00,54,1.60
2019,04,05,00,59,1.60
2019,04,05,01,08,11.30
2019,04,05,01,09,11.30
2019,04,05,01,10,11.30
2019,04,05,01,11,1.60
2019,04,05,01,13,9.60
2019,04,05,01,14,8.10
2019,04,05,01,15,14.50
2019,04,05,01,16,8.10
2019,04,05,01,17,3.20
2019,04,05,01,18,9.60
2019,04,05,01,19,9.60
2019,04,05,01,20,9.60
2019,04,05,01,21,8.10
2019,04,05,01,22,9.60
2019,04,05,01,23,9.60
2019,04,05,01,24,8.10
2019,04,05,01,25,6.40
2019,04,05,01,27,3.20
2019,04,05,01,31,14.50
2019,04,05,01,32,16.10
2019,04,05,01,33,20.90
2019,04,05,01,34,12.90
2019,04,05,01,35,9.60
2019,04,05,01,36,12.90
2019,04,05,01,37,29.00
2019,04,05,01,38,27.40
2019,04,05,01,39,35.40
2019,04,05,01,40,29.00
2019,04,05,01,41,27.40
2019,04,05,01,42,24.20
2019,04,05,01,43,17.70
2019,04,05,01,44,8.10
2019,04,05,01,45,8.10
2019,04,05,01,48,14.50
2019,04,05,01,49,11.30
2019,04,05,01,50,14.50
2019,04,05,01,51,1.60
2019,04,05,01,52,16.10
2019,04,05,01,53,19.30
2019,04,05,01,54,33.80
2019,04,05,01,55,27.40
2019,04,05,01,56,25.70
2019,04,05,01,57,12.90
2019,04,05,01,58,14.50
2019,04,05,01,59,9.60
2019,04,05,02,00,11.30
2019,04,05,02,01,1.60
2019,04,05,02,02,14.50
2019,04,05,02,03,33.80
2019,04,05,02,04,49.90
2019,04,05,02,05,49.90
2019,04,05,02,06,57.90
2019,04,05,02,07,64.40
2019,04,05,02,08,45.10
2019,04,05,02,09,29.00
2019,04,05,02,10,38.60
2019,04,05,02,11,29.00
2019,04,05,02,12,37.00
2019,04,05,02,13,37.00
2019,04,05,02,14,37.00
2019,04,05,02,15,22.50
2019,04,05,02,16,14.50
2019,04,05,02,17,14.50
2019,04,05,02,18,17.70
2019,04,05,02,19,14.50
2019,04,05,02,20,14.50
2019,04,05,02,21,1.60
2019,04,05,02,22,12.90
2019,04,05,02,23,9.60
2019,04,05,02,24,9.60
2019,04,05,02,25,9.60
2019,04,05,02,26,20.90
2019,04,05,02,27,11.30
2019,04,05,02,28,6.40
2019,04,05,02,29,1.60
2019,04,05,02,31,14.50
2019,04,05,02,32,8.10
2019,04,05,02,33,14.50
2019,04,05,02,34,8.10
2019,04,05,02,35,11.30
2019,04,05,02,36,20.90
2019,04,05,02,37,27.40
2019,04,05,02,38,29.00
2019,04,05,02,39,30.60
2019,04,05,02,40,27.40
2019,04,05,02,41,14.50
2019,04,05,02,42,27.40
2019,04,05,02,43,19.30
2019,04,05,02,44,20.90
2019,04,05,02,45,22.50
2019,04,05,02,46,22.50
2019,04,05,02,47,27.40
2019,04,05,02,48,24.20
2019,04,05,02,49,24.20
2019,04,05,02,50,30.60
2019,04,05,02,51,27.40
2019,04,05,02,52,19.30
2019,04,05,02,53,30.60
2019,04,05,02,54,24.20
2019,04,05,02,55,37.00
2019,04,05,02,56,27.40
2019,04,05,02,57,29.00
2019,04,05,02,58,25.70
2019,04,05,02,59,20.90
2019,04,05,03,00,17.70
2019,04,05,03,01,20.90
2019,04,05,03,02,30.60
2019,04,05,03,03,22.50
2019,04,05,03,04,24.20
2019,04,05,03,05,32.20
2019,04,05,03,06,24.20
2019,04,05,03,07,40.20
2019,04,05,03,08,35.40
2019,04,05,03,09,30.60
2019,04,05,03,10,25.70
2019,04,05,03,11,30.60
2019,04,05,03,12,25.70
2019,04,05,03,13,24.20
2019,04,05,03,14,19.30
2019,04,05,03,15,20.90
2019,04,05,03,16,32.20
2019,04,05,03,17,25.70
2019,04,05,03,18,29.00
2019,04,05,03,19,40.20
2019,04,05,03,20,27.40
2019,04,05,03,21,25.70
2019,04,05,03,22,30.60
2019,04,05,03,23,29.00
2019,04,05,03,24,38.60
2019,04,05,03,25,29.00
2019,04,05,03,26,30.60
2019,04,05,03,27,20.90
2019,04,05,03,28,22.50
2019,04,05,03,29,40.20
2019,04,05,03,30,24.20
2019,04,05,03,31,16.10
2019,04,05,03,32,19.30
2019,04,05,03,33,17.70
2019,04,05,03,34,27.40
2019,04,05,03,35,25.70
2019,04,05,03,36,17.70
2019,04,05,03,37,25.70
2019,04,05,03,38,25.70
2019,04,05,03,39,12.90
2019,04,05,03,40,14.50
2019,04,05,03,41,11.30
2019,04,05,03,42,9.60
2019,04,05,03,43,24.20
2019,04,05,03,44,22.50
2019,04,05,03,45,17.70
2019,04,05,03,46,16.10
2019,04,05,03,48,12.90
2019,04,05,03,49,12.90
2019,04,05,03,50,17.70
2019,04,05,03,51,8.10
2019,04,05,03,53,1.60
2019,04,05,03,55,1.60
2019,04,05,03,56,29.00
2019,04,05,03,57,19.30
2019,04,05,03,58,16.10
2019,04,05,03,59,22.50
2019,04,05,04,00,27.40
2019,04,05,04,01,24.20
2019,04,05,04,02,24.20
2019,04,05,04,03,35.40
2019,04,05,04,04,27.40
2019,04,05,04,05,32.20
2019,04,05,04,06,25.70
2019,04,05,04,07,17.70
2019,04,05,04,08,6.40
2019,04,05,04,09,17.70
2019,04,05,04,10,24.20
2019,04,05,04,11,20.90
2019,04,05,04,12,24.20
2019,04,05,04,13,32.20
2019,04,05,04,14,32.20
2019,04,05,04,15,29.00
2019,04,05,04,16,22.50
2019,04,05,04,17,32.20
2019,04,05,04,18,35.40
2019,04,05,04,19,38.60
2019,04,05,04,20,33.80
2019,04,05,04,21,25.70
2019,04,05,04,22,25.70
2019,04,05,04,23,20.90
2019,04,05,04,24,25.70
2019,04,05,04,25,32.20
2019,04,05,04,26,25.70
2019,04,05,04,27,29.00
2019,04,05,04,28,25.70
2019,04,05,04,29,22.50
2019,04,05,04,30,25.70
2019,04,05,04,31,25.70
2019,04,05,04,32,24.20
2019,04,05,04,33,25.70
2019,04,05,04,34,29.00
2019,04,05,04,35,33.80
2019,04,05,04,36,17.70
2019,04,05,04,37,25.70
2019,04,05,04,38,33.80
2019,04,05,04,39,19.30
2019,04,05,04,40,27.40
2019,04,05,04,41,19.30
2019,04,05,04,42,17.70
2019,04,05,04,43,12.90
2019,04,05,04,44,1.60
2019,04,05,04,45,11.30
2019,04,05,04,46,22.50
2019,04,05,04,47,11.30
2019,04,05,04,50,12.90
2019,04,05,04,51,27.40
2019,04,05,04,52,30.60
2019,04,05,04,53,29.00
2019,04,05,04,54,24.20
2019,04,05,04,55,29.00
2019,04,05,04,56,29.00
2019,04,05,04,57,20.90
2019,04,05,04,58,12.90
2019,04,05,04,59,29.00
2019,04,05,05,00,40.20
2019,04,05,05,01,30.60
2019,04,05,05,02,27.40
2019,04,05,05,03,32.20
2019,04,05,05,04,33.80
2019,04,05,05,05,45.10
2019,04,05,05,06,57.90
2019,04,05,05,07,41.80
2019,04,05,05,08,29.00
2019,04,05,05,09,32.20
2019,04,05,05,10,35.40
2019,04,05,05,11,27.40
2019,04,05,05,12,24.20
2019,04,05,05,13,16.10
2019,04,05,05,14,24.20
2019,04,05,05,15,19.30
2019,04,05,05,16,83.70
2019,04,05,05,17,35.40
2019,04,05,05,18,14.50
2019,04,05,05,19,25.70
2019,04,05,05,20,38.60
2019,04,05,05,21,29.00
2019,04,05,05,22,46.70
2019,04,05,05,23,33.80
2019,04,05,05,24,25.70
2019,04,05,05,25,49.90
2019,04,05,05,26,16.10
2019,04,05,05,27,24.20
2019,04,05,05,28,30.60
2019,04,05,05,29,24.20
2019,04,05,05,30,37.00
2019,04,05,05,31,27.40
2019,04,05,05,32,17.70
2019,04,05,05,33,25.70
2019,04,05,05,34,33.80
2019,04,05,05,35,30.60
2019,04,05,05,36,19.30
2019,04,05,05,37,46.70
2019,04,05,05,38,57.90
2019,04,05,05,39,29.00
2019,04,05,05,40,29.00
2019,04,05,05,41,54.70
2019,04,05,05,42,37.00
2019,04,05,05,43,33.80
2019,04,05,05,44,25.70
2019,04,05,05,45,43.50
2019,04,05,05,46,37.00
2019,04,05,05,47,35.40
2019,04,05,05,48,30.60
2019,04,05,05,49,41.80
2019,04,05,05,50,38.60
2019,04,05,05,51,38.60
2019,04,05,05,52,45.10
2019,04,05,05,53,51.50
2019,04,05,05,54,33.80
2019,04,05,05,55,59.50
2019,04,05,05,56,43.50
2019,04,05,05,57,38.60
2019,04,05,05,58,43.50
2019,04,05,05,59,49.90
2019,04,05,06,00,33.80
2019,04,05,06,01,40.20
2019,04,05,06,02,38.60
2019,04,05,06,03,33.80
2019,04,05,06,04,24.20
2019,04,05,06,05,32.20
2019,04,05,06,06,27.40
2019,04,05,06,07,27.40
2019,04,05,06,08,24.20
2019,04,05,06,09,29.00
2019,04,05,06,10,27.40
2019,04,05,06,11,29.00
2019,04,05,06,12,25.70
2019,04,05,06,13,19.30
2019,04,05,06,14,20.90
2019,04,05,06,15,41.80
2019,04,05,06,16,40.20
2019,04,05,06,17,19.30
2019,04,05,06,18,27.40
2019,04,05,06,19,20.90
2019,04,05,06,20,32.20
2019,04,05,06,21,24.20
2019,04,05,06,22,25.70
2019,04,05,06,23,8.10
2019,04,05,06,24,22.50
2019,04,05,06,25,14.50
2019,04,05,06,26,20.90
2019,04,05,06,27,19.30
2019,04,05,06,28,17.70
2019,04,05,06,29,17.70
2019,04,05,06,30,20.90
2019,04,05,06,31,19.30
2019,04,05,06,32,9.60
2019,04,05,06,35,1.60
2019,04,05,06,42,14.50
2019,04,05,06,43,20.90
2019,04,05,06,44,12.90
2019,04,05,06,47,11.30
2019,04,05,06,48,27.40
2019,04,05,06,49,16.10
2019,04,05,06,50,20.90
2019,04,05,06,51,41.80
2019,04,05,06,52,41.80
2019,04,05,06,53,24.20
2019,04,05,06,54,29.00
2019,04,05,06,55,24.20
2019,04,05,06,56,24.20
2019,04,05,06,57,29.00
2019,04,05,06,58,19.30
2019,04,05,06,59,22.50
2019,04,05,07,00,20.90
2019,04,05,07,01,20.90
2019,04,05,07,02,20.90
2019,04,05,07,03,17.70
2019,04,05,07,04,25.70
2019,04,05,07,05,24.20
2019,04,05,07,06,27.40
2019,04,05,07,07,29.00
2019,04,05,07,08,30.60
2019,04,05,07,09,33.80
2019,04,05,07,10,41.80
2019,04,05,07,11,46.70
2019,04,05,07,12,41.80
2019,04,05,07,13,25.70
2019,04,05,07,14,25.70
2019,04,05,07,15,40.20
2019,04,05,07,16,37.00
2019,04,05,07,17,41.80
2019,04,05,07,18,38.60
2019,04,05,07,19,27.40
2019,04,05,07,20,29.00
2019,04,05,07,21,30.60
2019,04,05,07,22,29.00
2019,04,05,07,23,24.20
2019,04,05,07,24,33.80
2019,04,05,07,25,41.80
2019,04,05,07,26,41.80
2019,04,05,07,27,33.80
2019,04,05,07,28,32.20
2019,04,05,07,29,25.70
2019,04,05,07,30,25.70
2019,04,05,07,31,14.50
2019,04,05,07,32,29.00
2019,04,05,07,33,25.70
2019,04,05,07,34,40.20
2019,04,05,07,35,29.00
2019,04,05,07,36,12.90
2019,04,05,07,37,24.20
2019,04,05,07,38,30.60
2019,04,05,07,39,12.90
2019,04,05,07,40,12.90
2019,04,05,07,41,25.70
2019,04,05,07,42,32.20
2019,04,05,07,43,27.40
2019,04,05,07,44,22.50
2019,04,05,07,45,8.10
2019,04,05,07,46,22.50
2019,04,05,07,47,20.90
2019,04,05,07,48,24.20
2019,04,05,07,49,12.90
2019,04,05,07,50,12.90
2019,04,05,07,51,17.70
2019,04,05,07,52,22.50
2019,04,05,07,53,14.50
2019,04,05,07,55,25.70
2019,04,05,07,56,16.10
2019,04,05,07,57,25.70
2019,04,05,07,58,17.70
2019,04,05,07,59,12.90
2019,04,05,08,00,27.40
2019,04,05,08,01,27.40
2019,04,05,08,02,19.30
2019,04,05,08,03,20.90
2019,04,05,08,04,16.10
2019,04,05,08,05,11.30
2019,04,05,08,06,9.60
2019,04,05,08,07,20.90
2019,04,05,08,08,33.80
2019,04,05,08,09,32.20
2019,04,05,08,10,22.50
2019,04,05,08,11,25.70
2019,04,05,08,12,25.70
2019,04,05,08,13,25.70
2019,04,05,08,14,22.50
2019,04,05,08,15,25.70
2019,04,05,08,16,24.20
2019,04,05,08,17,25.70
2019,04,05,08,18,20.90
2019,04,05,08,19,24.20
2019,04,05,08,20,30.60
2019,04,05,08,21,33.80
2019,04,05,08,22,16.10
2019,04,05,08,23,30.60
2019,04,05,08,24,27.40
2019,04,05,08,25,20.90
2019,04,05,08,26,30.60
2019,04,05,08,27,25.70
2019,04,05,08,28,27.40
2019,04,05,08,29,19.30
2019,04,05,08,30,19.30
2019,04,05,08,31,35.40
2019,04,05,08,32,24.20
2019,04,05,08,33,24.20
2019,04,05,08,34,32.20
2019,04,05,08,35,33.80
2019,04,05,08,36,22.50
2019,04,05,08,37,29.00
2019,04,05,08,38,22.50
2019,04,05,08,39,32.20
2019,04,05,08,40,25.70
2019,04,05,08,41,17.70
2019,04,05,08,42,24.20
2019,04,05,08,43,27.40
2019,04,05,08,44,20.90
2019,04,05,08,45,17.70
2019,04,05,08,46,30.60
2019,04,05,08,47,12.90
2019,04,05,08,48,12.90
2019,04,05,08,49,3.20
2019,04,05,08,50,16.10
2019,04,05,08,51,25.70
2019,04,05,08,52,19.30
2019,04,05,08,53,12.90
2019,04,05,08,54,30.60
2019,04,05,08,55,35.40
2019,04,05,08,56,30.60
2019,04,05,08,57,25.70
2019,04,05,08,58,25.70
2019,04,05,08,59,24.20
2019,04,05,09,00,33.80
2019,04,05,09,01,30.60
2019,04,05,09,02,24.20
2019,04,05,09,03,27.40
2019,04,05,09,04,29.00
2019,04,05,09,05,25.70
2019,04,05,09,06,24.20
2019,04,05,09,07,45.10
2019,04,05,09,08,30.60
2019,04,05,09,09,29.00
2019,04,05,09,10,20.90
2019,04,05,09,11,20.90
2019,04,05,09,12,14.50
2019,04,05,09,13,19.30
2019,04,05,09,14,22.50
2019,04,05,09,15,35.40
2019,04,05,09,16,33.80
2019,04,05,09,17,29.00
2019,04,05,09,18,45.10
2019,04,05,09,19,37.00
2019,04,05,09,20,25.70
2019,04,05,09,21,19.30
2019,04,05,09,22,16.10
2019,04,05,09,23,16.10
2019,04,05,09,24,16.10
2019,04,05,09,25,27.40
2019,04,05,09,26,25.70
2019,04,05,09,27,20.90
2019,04,05,09,28,19.30
2019,04,05,09,29,20.90
2019,04,05,09,30,19.30
2019,04,05,09,31,24.20
2019,04,05,09,32,25.70
2019,04,05,09,33,24.20
2019,04,05,09,34,25.70
2019,04,05,09,35,22.50
2019,04,05,09,36,17.70
2019,04,05,09,37,16.10
2019,04,05,09,38,11.30
2019,04,05,09,41,8.10
2019,04,05,09,42,6.40
2019,04,05,09,44,3.20
2019,04,05,09,45,12.90
2019,04,05,09,46,1.60
2019,04,05,09,47,1.60
2019,04,05,09,48,3.20
2019,04,05,09,51,11.30
2019,04,05,09,52,9.60
2019,04,05,09,53,9.60
2019,04,05,09,54,4.80
2019,04,05,09,55,3.20
2019,04,05,09,56,22.50
2019,04,05,09,57,16.10
2019,04,05,09,58,19.30
2019,04,05,09,59,20.90
2019,04,05,10,00,14.50
2019,04,05,10,01,22.50
2019,04,05,10,02,20.90
2019,04,05,10,03,27.40
2019,04,05,10,04,29.00
2019,04,05,10,05,38.60
2019,04,05,10,06,25.70
2019,04,05,10,07,24.20
2019,04,05,10,08,27.40
2019,04,05,10,09,27.40
2019,04,05,10,10,17.70
2019,04,05,10,11,25.70
2019,04,05,10,12,25.70
2019,04,05,10,13,25.70
2019,04,05,10,14,35.40
2019,04,05,10,15,40.20
2019,04,05,10,16,35.40
2019,04,05,10,17,22.50
2019,04,05,10,18,35.40
2019,04,05,10,19,32.20
2019,04,05,10,20,22.50
2019,04,05,10,21,17.70
2019,04,05,10,22,24.20
2019,04,05,10,23,24.20
2019,04,05,10,24,22.50
2019,04,05,10,25,17.70
2019,04,05,10,26,19.30
2019,04,05,10,27,24.20
2019,04,05,10,28,12.90
2019,04,05,10,29,8.10
2019,04,05,10,30,11.30
2019,04,05,10,31,17.70
2019,04,05,10,32,8.10
2019,04,05,10,33,8.10
2019,04,05,10,34,4.80
2019,04,05,10,36,9.60
2019,04,05,10,37,8.10
2019,04,05,10,38,6.40
2019,04,05,10,43,12.90
2019,04,05,10,44,14.50
2019,04,05,10,45,1.60
2019,04,05,10,46,1.60
2019,04,05,10,47,9.60
2019,04,05,10,48,9.60
2019,04,05,10,49,17.70
2019,04,05,10,50,14.50
2019,04,05,10,51,14.50
2019,04,05,10,53,12.90
2019,04,05,10,54,14.50
2019,04,05,10,55,19.30
2019,04,05,10,56,30.60
2019,04,05,10,57,24.20
2019,04,05,10,58,12.90
2019,04,05,10,59,16.10
2019,04,05,11,00,43.50
2019,04,05,11,01,29.00
2019,04,05,11,02,22.50
2019,04,05,11,03,11.30
2019,04,05,11,04,30.60
2019,04,05,11,05,22.50
2019,04,05,11,06,16.10
2019,04,05,11,07,38.60
2019,04,05,11,08,20.90
2019,04,05,11,09,38.60
2019,04,05,11,10,25.70
2019,04,05,11,11,35.40
2019,04,05,11,12,20.90
2019,04,05,11,13,49.90
2019,04,05,11,14,57.90
2019,04,05,11,15,33.80
2019,04,05,11,16,57.90
2019,04,05,11,17,45.10
2019,04,05,11,18,43.50
2019,04,05,11,19,29.00
2019,04,05,11,20,25.70
2019,04,05,11,21,49.90
2019,04,05,11,22,37.00
2019,04,05,11,23,20.90
2019,04,05,11,24,32.20
2019,04,05,11,25,25.70
2019,04,05,11,26,45.10
2019,04,05,11,27,54.70
2019,04,05,11,28,40.20
2019,04,05,11,29,41.80
2019,04,05,11,30,45.10
2019,04,05,11,31,37.00
2019,04,05,11,32,43.50
2019,04,05,11,33,35.40
2019,04,05,11,34,43.50
2019,04,05,11,35,37.00
2019,04,05,11,36,20.90
2019,04,05,11,37,11.30
2019,04,05,11,38,24.20
2019,04,05,11,39,25.70
2019,04,05,11,40,24.20
2019,04,05,11,41,29.00
2019,04,05,11,42,33.80
2019,04,05,11,43,25.70
2019,04,05,11,44,32.20
2019,04,05,11,45,22.50
2019,04,05,11,46,8.10
2019,04,05,11,47,25.70
2019,04,05,11,48,25.70
2019,04,05,11,49,22.50
2019,04,05,11,50,29.00
2019,04,05,11,51,22.50
2019,04,05,11,52,11.30
2019,04,05,11,53,17.70
2019,04,05,11,54,17.70
2019,04,05,11,55,6.40
2019,04,05,11,56,16.10
2019,04,05,11,57,9.60
2019,04,05,11,58,14.50
2019,04,05,11,59,11.30
2019,04,05,12,01,1.60
2019,04,05,12,02,8.10
2019,04,05,12,03,17.70
2019,04,05,12,04,22.50
2019,04,05,12,05,27.40
2019,04,05,12,06,43.50
2019,04,05,12,07,46.70
2019,04,05,12,08,41.80
2019,04,05,12,09,59.50
2019,04,05,12,10,48.30
2019,04,05,12,11,53.10
2019,04,05,12,12,49.90
2019,04,05,12,13,49.90
2019,04,05,12,14,56.30
2019,04,05,12,15,49.90
2019,04,05,12,16,48.30
2019,04,05,12,17,48.30
2019,04,05,12,18,45.10
2019,04,05,12,19,49.90
2019,04,05,12,20,37.00
2019,04,05,12,21,41.80
2019,04,05,12,22,53.10
2019,04,05,12,23,70.80
2019,04,05,12,24,56.30
2019,04,05,12,25,62.70
2019,04,05,12,26,67.60
2019,04,05,12,27,66.00
2019,04,05,12,28,59.50
2019,04,05,12,29,54.70
2019,04,05,12,30,49.90
2019,04,05,12,31,72.40
2019,04,05,12,32,72.40
2019,04,05,12,33,53.10
2019,04,05,12,34,48.30
2019,04,05,12,35,74.00
2019,04,05,12,36,46.70
2019,04,05,12,37,43.50
2019,04,05,12,38,57.90
2019,04,05,12,39,49.90
2019,04,05,12,40,41.80
2019,04,05,12,41,57.90
2019,04,05,12,42,82.10
2019,04,05,12,43,69.20
2019,04,05,12,44,49.90
2019,04,05,12,45,59.50
2019,04,05,12,46,54.70
2019,04,05,12,47,54.70
2019,04,05,12,48,85.30
2019,04,05,12,49,67.60
2019,04,05,12,50,54.70
2019,04,05,12,51,59.50
2019,04,05,12,52,61.20
2019,04,05,12,53,59.50
2019,04,05,12,54,64.40
2019,04,05,12,55,83.70
2019,04,05,12,56,70.80
2019,04,05,12,57,53.10
2019,04,05,12,58,78.80
2019,04,05,12,59,69.20
2019,04,05,13,00,57.90
2019,04,05,13,01,83.70
2019,04,05,13,02,59.50
2019,04,05,13,03,67.60
2019,04,05,13,04,88.50
2019,04,05,13,05,77.30
2019,04,05,13,06,59.50
2019,04,05,13,07,74.00
2019,04,05,13,08,61.20
2019,04,05,13,09,49.90
2019,04,05,13,10,38.60
2019,04,05,13,11,56.30
2019,04,05,13,12,90.10
2019,04,05,13,13,98.20
2019,04,05,13,14,75.60
2019,04,05,13,15,88.50
2019,04,05,13,16,72.40
2019,04,05,13,17,66.00
2019,04,05,13,18,54.70
2019,04,05,13,19,53.10
2019,04,05,13,20,57.90
2019,04,05,13,21,90.10
2019,04,05,13,22,59.50
2019,04,05,13,23,86.90
2019,04,05,13,24,93.30
2019,04,05,13,25,80.50
2019,04,05,13,26,86.90
2019,04,05,13,27,75.60
2019,04,05,13,28,67.60
2019,04,05,13,29,78.80
2019,04,05,13,30,82.10
2019,04,05,13,31,48.30
2019,04,05,13,32,66.00
2019,04,05,13,33,66.00
2019,04,05,13,34,62.70
2019,04,05,13,35,64.40
2019,04,05,13,36,70.80
2019,04,05,13,37,49.90
2019,04,05,13,38,41.80
2019,04,05,13,39,90.10
2019,04,05,13,40,33.80
2019,04,05,13,41,64.40
2019,04,05,13,42,57.90
2019,04,05,13,43,56.30
2019,04,05,13,44,80.50
2019,04,05,13,45,53.10
2019,04,05,13,46,83.70
2019,04,05,13,47,62.70
2019,04,05,13,48,49.90
2019,04,05,13,49,53.10
2019,04,05,13,50,104.60
2019,04,05,13,51,86.90
2019,04,05,13,52,77.30
2019,04,05,13,53,83.70
2019,04,05,13,54,53.10
2019,04,05,13,55,66.00
2019,04,05,13,56,56.30
2019,04,05,13,57,70.80
2019,04,05,13,58,78.80
2019,04,05,13,59,85.30
2019,04,05,14,00,69.20
2019,04,05,14,01,51.50
2019,04,05,14,02,48.30
2019,04,05,14,03,45.10
2019,04,05,14,04,62.70
2019,04,05,14,05,46.70
2019,04,05,14,06,48.30
2019,04,05,14,07,38.60
2019,04,05,14,08,29.00
2019,04,05,14,09,38.60
2019,04,05,14,10,91.70
2019,04,05,14,11,43.50
2019,04,05,14,12,27.40
2019,04,05,14,13,45.10
2019,04,05,14,14,45.10
2019,04,05,14,15,43.50
2019,04,05,14,16,54.70
2019,04,05,14,17,46.70
2019,04,05,14,18,66.00
2019,04,05,14,19,51.50
2019,04,05,14,20,32.20
2019,04,05,14,21,67.60
2019,04,05,14,22,40.20
2019,04,05,14,23,41.80
2019,04,05,14,24,33.80
2019,04,05,14,25,29.00
2019,04,05,14,26,33.80
2019,04,05,14,27,38.60
2019,04,05,14,28,37.00
2019,04,05,14,29,32.20
2019,04,05,14,30,24.20
2019,04,05,14,31,35.40
2019,04,05,14,32,29.00
2019,04,05,14,33,35.40
2019,04,05,14,34,29.00
2019,04,05,14,35,30.60
2019,04,05,14,36,29.00
2019,04,05,14,37,29.00
2019,04,05,14,38,33.80
2019,04,05,14,39,38.60
2019,04,05,14,40,19.30
2019,04,05,14,41,33.80
2019,04,05,14,42,16.10
2019,04,05,14,43,22.50
2019,04,05,14,44,14.50
2019,04,05,14,45,14.50
2019,04,05,14,46,17.70
2019,04,05,14,47,8.10
2019,04,05,14,48,17.70
2019,04,05,14,49,29.00
2019,04,05,14,50,16.10
2019,04,05,14,51,6.40
2019,04,05,14,52,30.60
2019,04,05,14,53,32.20
2019,04,05,14,54,8.10
2019,04,05,14,55,4.80
2019,04,05,14,56,19.30
2019,04,05,14,57,49.90
2019,04,05,14,58,53.10
2019,04,05,14,59,56.30
2019,04,05,15,00,41.80
2019,04,05,15,01,43.50
2019,04,05,15,02,48.30
2019,04,05,15,03,35.40
2019,04,05,15,04,49.90
2019,04,05,15,05,56.30
2019,04,05,15,06,33.80
2019,04,05,15,07,37.00
2019,04,05,15,08,24.20
2019,04,05,15,09,35.40
2019,04,05,15,10,29.00
2019,04,05,15,11,30.60
2019,04,05,15,12,29.00
2019,04,05,15,13,33.80
2019,04,05,15,14,43.50
2019,04,05,15,15,62.70
2019,04,05,15,16,54.70
2019,04,05,15,17,45.10
2019,04,05,15,18,29.00
2019,04,05,15,19,40.20
2019,04,05,15,20,38.60
2019,04,05,15,21,35.40
2019,04,05,15,22,24.20
2019,04,05,15,23,57.90
2019,04,05,15,24,37.00
2019,04,05,15,25,43.50
2019,04,05,15,26,32.20
2019,04,05,15,27,25.70
2019,04,05,15,28,19.30
2019,04,05,15,29,29.00
2019,04,05,15,30,19.30
2019,04,05,15,31,45.10
2019,04,05,15,32,40.20
2019,04,05,15,33,33.80
2019,04,05,15,34,41.80
2019,04,05,15,35,66.00
2019,04,05,15,36,51.50
2019,04,05,15,37,40.20
2019,04,05,15,38,43.50
2019,04,05,15,39,41.80
2019,04,05,15,40,33.80
2019,04,05,15,41,19.30
2019,04,05,15,42,43.50
2019,04,05,15,43,54.70
2019,04,05,15,44,19.30
2019,04,05,15,45,48.30
2019,04,05,15,46,37.00
2019,04,05,15,47,45.10
2019,04,05,15,48,24.20
2019,04,05,15,49,19.30
2019,04,05,15,50,66.00
2019,04,05,15,51,40.20
2019,04,05,15,52,25.70
2019,04,05,15,53,14.50
2019,04,05,15,54,29.00
2019,04,05,15,55,61.20
2019,04,05,15,56,51.50
2019,04,05,15,57,54.70
2019,04,05,15,58,75.60
2019,04,05,15,59,62.70
2019,04,05,16,00,53.10
2019,04,05,16,01,22.50
2019,04,05,16,02,49.90
2019,04,05,16,03,88.50
2019,04,05,16,04,66.00
2019,04,05,16,05,61.20
2019,04,05,16,06,83.70
2019,04,05,16,07,107.80
2019,04,05,16,08,93.30
2019,04,05,16,09,132.00
2019,04,05,16,10,49.90
2019,04,05,16,11,88.50
2019,04,05,16,12,45.10
2019,04,05,16,13,56.30
2019,04,05,16,14,53.10
2019,04,05,16,15,48.30
2019,04,05,16,16,99.80
2019,04,05,16,17,115.90
2019,04,05,16,18,91.70
2019,04,05,16,19,133.60
2019,04,05,16,20,88.50
2019,04,05,16,21,41.80
2019,04,05,16,22,53.10
2019,04,05,16,23,46.70
2019,04,05,16,24,48.30
2019,04,05,16,25,90.10
2019,04,05,16,26,75.60
2019,04,05,16,27,67.60
2019,04,05,16,28,35.40
2019,04,05,16,29,56.30
2019,04,05,16,30,80.50
2019,04,05,16,31,64.40
2019,04,05,16,32,12.90
2019,04,05,16,33,20.90
2019,04,05,16,34,20.90
2019,04,05,16,35,56.30
2019,04,05,16,36,61.20
2019,04,05,16,37,33.80
2019,04,05,16,38,57.90
2019,04,05,16,39,91.70
2019,04,05,16,40,62.70
2019,04,05,16,41,54.70
2019,04,05,16,42,64.40
2019,04,05,16,43,95.00
2019,04,05,16,44,64.40
2019,04,05,16,45,77.30
2019,04,05,16,46,51.50
2019,04,05,16,47,62.70
2019,04,05,16,48,27.40
2019,04,05,16,49,49.90
2019,04,05,16,50,38.60
2019,04,05,16,51,56.30
2019,04,05,16,52,59.50
2019,04,05,16,53,30.60
2019,04,05,16,54,70.80
2019,04,05,16,55,62.70
2019,04,05,16,56,35.40
2019,04,05,16,57,37.00
2019,04,05,16,58,46.70
2019,04,05,16,59,29.00
2019,04,05,17,00,40.20
2019,04,05,17,01,57.90
2019,04,05,17,02,61.20
2019,04,05,17,03,64.40
2019,04,05,17,04,61.20
2019,04,05,17,05,49.90
2019,04,05,17,06,49.90
2019,04,05,17,07,16.10
2019,04,05,17,08,14.50
2019,04,05,17,09,45.10
2019,04,05,17,10,37.00
2019,04,05,17,11,61.20
2019,04,05,17,12,59.50
2019,04,05,17,13,56.30
2019,04,05,17,14,25.70
2019,04,05,17,15,43.50
2019,04,05,17,16,46.70
2019,04,05,17,17,30.60
2019,04,05,17,18,25.70
2019,04,05,17,19,33.80
2019,04,05,17,20,51.50
2019,04,05,17,21,32.20
2019,04,05,17,22,22.50
2019,04,05,17,23,43.50
2019,04,05,17,24,59.50
2019,04,05,17,25,41.80
2019,04,05,17,26,59.50
2019,04,05,17,27,33.80
2019,04,05,17,28,17.70
2019,04,05,17,29,19.30
2019,04,05,17,30,17.70
2019,04,05,17,31,29.00
2019,04,05,17,32,27.40
2019,04,05,17,33,33.80
2019,04,05,17,34,24.20
2019,04,05,17,35,25.70
2019,04,05,17,36,22.50
2019,04,05,17,37,51.50
2019,04,05,17,38,41.80
2019,04,05,17,39,56.30
2019,04,05,17,40,29.00
2019,04,05,17,41,57.90
2019,04,05,17,42,57.90
2019,04,05,17,43,29.00
2019,04,05,17,44,33.80
2019,04,05,17,45,57.90
2019,04,05,17,46,61.20
2019,04,05,17,47,38.60
2019,04,05,17,48,49.90
2019,04,05,17,49,64.40
2019,04,05,17,50,59.50
2019,04,05,17,51,35.40
2019,04,05,17,52,45.10
2019,04,05,17,53,29.00
2019,04,05,17,54,25.70
2019,04,05,17,55,37.00
2019,04,05,17,56,75.60
2019,04,05,17,57,62.70
2019,04,05,17,58,69.20
2019,04,05,17,59,46.70
2019,04,05,18,00,27.40
2019,04,05,18,01,64.40
2019,04,05,18,02,77.30
2019,04,05,18,03,53.10
2019,04,05,18,04,54.70
2019,04,05,18,05,27.40
2019,04,05,18,06,24.20
2019,04,05,18,07,43.50
2019,04,05,18,08,29.00
2019,04,05,18,09,40.20
2019,04,05,18,10,61.20
2019,04,05,18,11,27.40
2019,04,05,18,12,38.60
2019,04,05,18,13,45.10
2019,04,05,18,14,51.50
2019,04,05,18,15,41.80
2019,04,05,18,16,38.60
2019,04,05,18,17,70.80
2019,04,05,18,18,62.70
2019,04,05,18,19,57.90
2019,04,05,18,20,66.00
2019,04,05,18,21,59.50
2019,04,05,18,22,29.00
2019,04,05,18,23,40.20
2019,04,05,18,24,32.20
2019,04,05,18,25,38.60
2019,04,05,18,26,54.70
2019,04,05,18,27,32.20
2019,04,05,18,28,69.20
2019,04,05,18,29,70.80
2019,04,05,18,30,82.10
2019,04,05,18,31,57.90
2019,04,05,18,32,54.70
2019,04,05,18,33,38.60
2019,04,05,18,34,51.50
2019,04,05,18,35,49.90
2019,04,05,18,36,48.30
2019,04,05,18,37,48.30
2019,04,05,18,38,48.30
2019,04,05,18,39,49.90
2019,04,05,18,40,53.10
2019,04,05,18,41,67.60
2019,04,05,18,42,53.10
2019,04,05,18,43,82.10
2019,04,05,18,44,38.60
2019,04,05,18,45,38.60
2019,04,05,18,46,46.70
2019,04,05,18,47,41.80
2019,04,05,18,48,35.40
2019,04,05,18,49,35.40
2019,04,05,18,50,93.30
2019,04,05,18,51,56.30
2019,04,05,18,52,99.80
2019,04,05,18,53,61.20
2019,04,05,18,54,41.80
2019,04,05,18,55,66.00
2019,04,05,18,56,67.60
2019,04,05,18,57,30.60
2019,04,05,18,58,67.60
2019,04,05,18,59,46.70
2019,04,05,19,00,27.40